N5CJ KCMH-KCGF

Flight info

Callsign N5CJ
Flight time 0h 32m
Altitude 11000
Route DIRECT
Aircraft GLF5/M-VGDW/C

Departure

Time 2026-05-09 02:56
Airport John Glenn Columbus International Airport (KCMH)

Arrival

Time 2026-05-09 03:28
Airport Cuyahoga County Airport (KCGF)
Time Latitude Longitude Altitude Speed Heading
2026-05-09 02:35 39.99083 -82.89486 809 ft 0 kts 187°
2026-05-09 02:48 39.99082 -82.89487 809 ft 0 kts 187°
2026-05-09 02:48 39.99073 -82.89483 809 ft 2 kts 143°
2026-05-09 02:49 39.99070 -82.89457 809 ft 3 kts 79°
2026-05-09 02:49 39.99085 -82.89426 809 ft 4 kts 37°
2026-05-09 02:49 39.99113 -82.89417 809 ft 4 kts 359°
2026-05-09 02:49 39.99141 -82.89415 810 ft 3 kts 15°
2026-05-09 02:50 39.99164 -82.89384 811 ft 6 kts 67°
2026-05-09 02:50 39.99167 -82.89342 812 ft 2 kts 91°
2026-05-09 02:50 39.99165 -82.89298 812 ft 7 kts 93°
2026-05-09 02:50 39.99159 -82.89198 812 ft 13 kts 95°
2026-05-09 02:51 39.99152 -82.89075 812 ft 14 kts 93°
2026-05-09 02:51 39.99143 -82.88918 812 ft 18 kts 94°
2026-05-09 02:51 39.99134 -82.88751 812 ft 18 kts 94°
2026-05-09 02:51 39.99123 -82.88591 812 ft 17 kts 93°
2026-05-09 02:52 39.99115 -82.88438 812 ft 16 kts 94°
2026-05-09 02:52 39.99108 -82.88295 812 ft 15 kts 95°
2026-05-09 02:52 39.99100 -82.88156 812 ft 15 kts 94°
2026-05-09 02:52 39.99093 -82.88020 812 ft 14 kts 94°
2026-05-09 02:53 39.99063 -82.87895 812 ft 14 kts 118°
2026-05-09 02:53 39.99022 -82.87775 812 ft 14 kts 104°
2026-05-09 02:53 39.99013 -82.87648 812 ft 13 kts 94°
2026-05-09 02:53 39.99006 -82.87529 812 ft 11 kts 95°
2026-05-09 02:54 39.99001 -82.87458 812 ft 6 kts 94°
2026-05-09 02:54 39.98999 -82.87399 812 ft 6 kts 91°
2026-05-09 02:54 39.99019 -82.87350 812 ft 6 kts 23°
2026-05-09 02:54 39.99065 -82.87342 812 ft 7 kts
2026-05-09 02:55 39.99116 -82.87337 812 ft 7 kts
2026-05-09 02:55 39.99161 -82.87373 812 ft 8 kts 292°
2026-05-09 02:55 39.99170 -82.87489 812 ft 27 kts 274°
2026-05-09 02:55 39.99212 -82.88217 813 ft 135 kts 274°
2026-05-09 02:56 39.99289 -82.89780 1198 ft 201 kts 275°
2026-05-09 02:56 39.99397 -82.91807 2489 ft 249 kts 274°
2026-05-09 02:56 39.99563 -82.93784 4721 ft 211 kts 274°
2026-05-09 02:56 39.99741 -82.95682 5062 ft 217 kts 274°
2026-05-09 02:57 39.99911 -82.97568 5003 ft 207 kts 274°
2026-05-09 02:57 40.00104 -82.99402 4941 ft 203 kts 275°
2026-05-09 02:57 40.00325 -83.01183 4952 ft 203 kts 275°
2026-05-09 02:57 40.00547 -83.02984 4856 ft 197 kts 275°
2026-05-09 02:58 40.00758 -83.04732 5029 ft 198 kts 275°
2026-05-09 02:58 40.00960 -83.06506 4968 ft 198 kts 275°
2026-05-09 02:58 40.01190 -83.08263 5006 ft 195 kts 275°
2026-05-09 02:58 40.01404 -83.09999 5310 ft 192 kts 275°
2026-05-09 02:59 40.01629 -83.11688 6131 ft 200 kts 275°
2026-05-09 02:59 40.01859 -83.13676 6859 ft 239 kts 274°
2026-05-09 02:59 40.02089 -83.15877 7756 ft 254 kts 274°
2026-05-09 02:59 40.02329 -83.18166 8464 ft 260 kts 277°
2026-05-09 03:00 40.02907 -83.20385 9234 ft 264 kts 292°
2026-05-09 03:00 40.03973 -83.22351 9987 ft 273 kts 308°
2026-05-09 03:00 40.05461 -83.24046 10705 ft 305 kts 318°
2026-05-09 03:00 40.07367 -83.25700 10932 ft 348 kts 326°
2026-05-09 03:01 40.09598 -83.27122 10986 ft 369 kts 334°
2026-05-09 03:01 40.12085 -83.28096 10986 ft 375 kts 343°
2026-05-09 03:01 40.14720 -83.28569 10887 ft 381 kts 356°
2026-05-09 03:01 40.17322 -83.28030 10935 ft 388 kts 11°
2026-05-09 03:02 40.19839 -83.26655 10911 ft 392 kts 26°
2026-05-09 03:02 40.22026 -83.24484 10964 ft 398 kts 38°
2026-05-09 03:02 40.24091 -83.22105 10980 ft 400 kts 38°
2026-05-09 03:02 40.26200 -83.19674 10984 ft 400 kts 38°
2026-05-09 03:03 40.28268 -83.17295 10988 ft 400 kts 38°
2026-05-09 03:03 40.30359 -83.14874 10985 ft 401 kts 38°
2026-05-09 03:03 40.32462 -83.12448 10985 ft 401 kts 38°
2026-05-09 03:03 40.34553 -83.10044 10988 ft 400 kts 38°
2026-05-09 03:04 40.36626 -83.07658 10987 ft 402 kts 38°
2026-05-09 03:04 40.38729 -83.05223 10984 ft 401 kts 38°
2026-05-09 03:04 40.40834 -83.02795 10980 ft 401 kts 38°
2026-05-09 03:04 40.42902 -83.00410 10979 ft 401 kts 38°
2026-05-09 03:05 40.44997 -82.98000 10986 ft 401 kts 38°
2026-05-09 03:05 40.47097 -82.95564 10981 ft 401 kts 38°
2026-05-09 03:05 40.49186 -82.93137 10979 ft 400 kts 38°
2026-05-09 03:05 40.51277 -82.90710 10980 ft 401 kts 38°
2026-05-09 03:06 40.53353 -82.88310 10978 ft 401 kts 38°
2026-05-09 03:06 40.55455 -82.85870 10976 ft 400 kts 38°
2026-05-09 03:06 40.57546 -82.83443 10976 ft 402 kts 38°
2026-05-09 03:06 40.59612 -82.81039 10974 ft 400 kts 38°
2026-05-09 03:07 40.61711 -82.78597 10978 ft 401 kts 38°
2026-05-09 03:07 40.63784 -82.76189 10975 ft 400 kts 38°
2026-05-09 03:07 40.65876 -82.73756 10968 ft 400 kts 38°
2026-05-09 03:07 40.67959 -82.71334 10963 ft 399 kts 38°
2026-05-09 03:08 40.69938 -82.68778 10958 ft 400 kts 45°
2026-05-09 03:08 40.71771 -82.66013 10969 ft 403 kts 45°
2026-05-09 03:08 40.73605 -82.63245 10967 ft 403 kts 45°
2026-05-09 03:08 40.75468 -82.60439 10972 ft 403 kts 45°
2026-05-09 03:09 40.77296 -82.57685 10978 ft 404 kts 45°
2026-05-09 03:09 40.79143 -82.54900 10976 ft 403 kts 45°
2026-05-09 03:09 40.80979 -82.52129 10975 ft 403 kts 45°
2026-05-09 03:09 40.82840 -82.49316 10976 ft 404 kts 45°
2026-05-09 03:10 40.84662 -82.46561 10975 ft 403 kts 45°
2026-05-09 03:10 40.86509 -82.43767 10975 ft 403 kts 45°
2026-05-09 03:10 40.88358 -82.40964 10978 ft 404 kts 45°
2026-05-09 03:10 40.90205 -82.38163 10976 ft 403 kts 45°
2026-05-09 03:11 40.92025 -82.35402 10974 ft 404 kts 45°
2026-05-09 03:11 40.93878 -82.32587 10969 ft 404 kts 46°
2026-05-09 03:11 40.95716 -82.29793 10968 ft 405 kts 45°
2026-05-09 03:11 40.97555 -82.26994 10967 ft 404 kts 45°
2026-05-09 03:12 40.99404 -82.24178 10959 ft 405 kts 46°
2026-05-09 03:12 41.01232 -82.21390 10963 ft 405 kts 46°
2026-05-09 03:12 41.03087 -82.18559 10960 ft 404 kts 46°
2026-05-09 03:12 41.04922 -82.15756 10959 ft 403 kts 46°
2026-05-09 03:13 41.08593 -82.10142 10960 ft 404 kts 46°
2026-05-09 03:13 41.10424 -82.07335 10960 ft 404 kts 46°
2026-05-09 03:13 41.12241 -82.04551 10954 ft 404 kts 46°
2026-05-09 03:14 41.14078 -82.01730 10958 ft 404 kts 46°
2026-05-09 03:14 41.15931 -81.98885 10960 ft 404 kts 46°
2026-05-09 03:14 41.17760 -81.96072 10961 ft 403 kts 46°
2026-05-09 03:14 41.19571 -81.93286 10959 ft 402 kts 46°
2026-05-09 03:15 41.21392 -81.90479 10963 ft 404 kts 46°
2026-05-09 03:15 41.23244 -81.87625 10979 ft 405 kts 46°
2026-05-09 03:15 41.25043 -81.84850 10973 ft 404 kts 46°
2026-05-09 03:15 41.26755 -81.82205 10981 ft 403 kts 46°
2026-05-09 03:16 41.28587 -81.79372 10987 ft 404 kts 46°
2026-05-09 03:16 41.30410 -81.76550 10990 ft 402 kts 46°
2026-05-09 03:16 41.32237 -81.73722 10984 ft 405 kts 46°
2026-05-09 03:16 41.34076 -81.70871 10988 ft 404 kts 46°
2026-05-09 03:17 41.35881 -81.68068 10983 ft 403 kts 46°
2026-05-09 03:17 41.37702 -81.65239 10985 ft 403 kts 46°
2026-05-09 03:17 41.39529 -81.62400 10820 ft 404 kts 46°
2026-05-09 03:17 41.41356 -81.59554 10290 ft 401 kts 46°
2026-05-09 03:18 41.43160 -81.56744 9787 ft 397 kts 46°
2026-05-09 03:18 41.44919 -81.54003 9296 ft 392 kts 46°
2026-05-09 03:18 41.46681 -81.51254 8801 ft 389 kts 46°
2026-05-09 03:18 41.48418 -81.48541 8304 ft 383 kts 47°
2026-05-09 03:19 41.50152 -81.45830 7803 ft 381 kts 47°
2026-05-09 03:19 41.51836 -81.43196 7311 ft 378 kts 47°
2026-05-09 03:19 41.53534 -81.40537 6813 ft 374 kts 47°
2026-05-09 03:19 41.55220 -81.37893 6311 ft 368 kts 48°
2026-05-09 03:20 41.56856 -81.35324 5817 ft 366 kts 48°
2026-05-09 03:20 41.58492 -81.32757 5314 ft 363 kts 49°
2026-05-09 03:20 41.60136 -81.30170 4805 ft 362 kts 49°
2026-05-09 03:20 41.61738 -81.27652 4307 ft 360 kts 49°
2026-05-09 03:21 41.63346 -81.25120 3984 ft 356 kts 49°
2026-05-09 03:21 41.64941 -81.22642 3966 ft 356 kts 45°
2026-05-09 03:21 41.66928 -81.20744 3964 ft 339 kts 23°
2026-05-09 03:21 41.69102 -81.20049 3953 ft 306 kts 359°
2026-05-09 03:22 41.71066 -81.20557 3958 ft 275 kts 333°
2026-05-09 03:22 41.72535 -81.22012 3625 ft 262 kts 307°
2026-05-09 03:22 41.73292 -81.24168 3242 ft 253 kts 278°
2026-05-09 03:22 41.73137 -81.26438 2990 ft 241 kts 248°
2026-05-09 03:23 41.72168 -81.28126 2975 ft 226 kts 217°
2026-05-09 03:23 41.70687 -81.28822 3051 ft 231 kts 189°
2026-05-09 03:23 41.69148 -81.29365 2970 ft 222 kts 207°
2026-05-09 03:23 41.67701 -81.29863 2959 ft 210 kts 197°
2026-05-09 03:24 41.66507 -81.30812 2961 ft 192 kts 225°
2026-05-09 03:24 41.65754 -81.32251 3023 ft 187 kts 245°
2026-05-09 03:24 41.65415 -81.33916 3000 ft 187 kts 259°
2026-05-09 03:24 41.65018 -81.35498 2937 ft 175 kts 243°
2026-05-09 03:25 41.64357 -81.36679 2891 ft 142 kts 232°
2026-05-09 03:25 41.63698 -81.37653 2963 ft 141 kts 230°
2026-05-09 03:25 41.63004 -81.38625 2815 ft 145 kts 229°
2026-05-09 03:25 41.62331 -81.39578 2579 ft 136 kts 229°
2026-05-09 03:26 41.61733 -81.40482 2351 ft 125 kts 231°
2026-05-09 03:26 41.61195 -81.41357 2168 ft 121 kts 232°
2026-05-09 03:26 41.60663 -81.42226 2025 ft 120 kts 232°
2026-05-09 03:26 41.60126 -81.43072 1887 ft 119 kts 229°
2026-05-09 03:27 41.59556 -81.43885 1714 ft 121 kts 227°
2026-05-09 03:27 41.59005 -81.44737 1551 ft 121 kts 230°
2026-05-09 03:27 41.58464 -81.45611 1380 ft 122 kts 230°
2026-05-09 03:27 41.57916 -81.46470 1221 ft 123 kts 229°
2026-05-09 03:28 41.57360 -81.47333 1016 ft 124 kts 228°
2026-05-09 03:28 41.56804 -81.48183 874 ft 111 kts 228°
2026-05-09 03:28 41.56385 -81.48834 872 ft 64 kts 230°
2026-05-09 03:28 41.56245 -81.49053 873 ft 12 kts 230°
2026-05-09 03:29 41.56189 -81.49139 874 ft 7 kts 229°
2026-05-09 03:29 41.56183 -81.49189 873 ft 5 kts 311°
2026-05-09 03:29 41.56222 -81.49230 871 ft 9 kts 319°
2026-05-09 03:29 41.56258 -81.49248 869 ft 6 kts 32°
2026-05-09 03:30 41.56292 -81.49192 869 ft 7 kts 50°
2026-05-09 03:30 41.56332 -81.49136 868 ft 8 kts 49°
2026-05-09 03:30 41.56373 -81.49068 868 ft 9 kts 51°
2026-05-09 03:30 41.56417 -81.48998 868 ft 10 kts 51°
2026-05-09 03:31 41.56470 -81.48915 867 ft 13 kts 50°
2026-05-09 03:31 41.56519 -81.48838 867 ft 8 kts 50°
2026-05-09 03:31 41.56536 -81.48814 867 ft 1 kts 23°
2026-05-09 03:31 41.56550 -81.48827 866 ft 5 kts 317°
2026-05-09 03:32 41.56582 -81.48865 864 ft 6 kts 321°
2026-05-09 03:32 41.56607 -81.48865 863 ft 3 kts 46°
2026-05-09 03:32 41.56623 -81.48836 863 ft 4 kts 49°
2026-05-09 03:32 41.56651 -81.48795 862 ft 7 kts 49°
2026-05-09 03:33 41.56685 -81.48741 863 ft 7 kts 50°
2026-05-09 03:33 41.56720 -81.48687 863 ft 7 kts 50°
2026-05-09 03:33 41.56752 -81.48635 863 ft 7 kts 50°
2026-05-09 03:33 41.56784 -81.48586 864 ft 6 kts 46°
2026-05-09 03:34 41.56818 -81.48581 863 ft 5 kts 332°
2026-05-09 03:34 41.56825 -81.48606 862 ft 2 kts 233°
2026-05-09 03:34 41.56820 -81.48615 862 ft 0 kts 231°